Terminal Aerodrome Forecast
Issued by NWS Newport/Morehead City, NC

Home | Current Version | Previous Version | Text Only | Print | Product List | Glossary On
Versions: 1 2 3 4 5 6 7 8 9 10 11 12 13 14 15 16 17 18 19 20
000
FTUS42 KMHX 230000 AAB
TAFEWN
TAF AMD
KEWN 230023Z 2300/2324 32005KT 2SM BR OVC002
     FM230200 36005KT 2SM BR OVC001
     FM230900 03005KT 2SM BR OVC001
     FM231600 07005KT 4SM BR OVC003
     FM231900 12005KT 4SM BR OVC003=

USA.gov is the U.S. government's official web portal to all federal, state and local government web resources and services.